• In Deutschland
  • Länderverzeichnis
  • Für 7 Tage
  • Wassertemperatur
  • Satellitenkarten
  • Wetterkarte
  • Widgets
  • user-avatar
    Anmelden

    Stündliche Wetter Lüdenscheid

    Heute, 25 September, Dienstag

    Zeit Temperatur Niederschläge Wind Luftdruck Luftfeuchtigkeit
    00:00 +6°C° 0 mm 1 m/S 740 mmHg 84%
    01:00 +6°C° 0 mm 1 m/S 740 mmHg 85%
    02:00 +5°C° 0 mm 1 m/S 740 mmHg 86%
    03:00 +5°C° 0 mm 1 m/S 740 mmHg 87%
    04:00 +5°C° 0 mm 1 m/S 740 mmHg 87%
    05:00 +5°C° 0 mm 1 m/S 740 mmHg 87%
    06:00 +4°C° 0 mm 0 m/S 741 mmHg 87%
    07:00 +4°C° 0 mm 0 m/S 741 mmHg 85%
    08:00 +7°C° 0 mm 0 m/S 741 mmHg 77%
    09:00 +9°C° 0 mm 0 m/S 742 mmHg 69%
    10:00 +11°C° 0 mm 0 m/S 742 mmHg 61%
    11:00 +13°C° 0 mm 1 m/S 742 mmHg 56%
    12:00 +14°C° 0 mm 1 m/S 742 mmHg 51%
    13:00 +15°C° 0 mm 1 m/S 742 mmHg 46%
    14:00 +15°C° 0 mm 1 m/S 742 mmHg 47%
    15:00 +13°C° 0 mm 0 m/S 742 mmHg 47%
    16:00 +13°C° 0 mm 0 m/S 741 mmHg 47%
    17:00 +12°C° 0 mm 0 m/S 741 mmHg 53%
    18:00 +10°C° 0 mm 0 m/S 741 mmHg 58%
    19:00 +10°C° 0 mm 1 m/S 741 mmHg 63%
    20:00 +9°C° 0 mm 1 m/S 741 mmHg 66%
    21:00 +8°C° 0 mm 1 m/S 741 mmHg 68%
    22:00 +8°C° 0 mm 1 m/S 741 mmHg 70%
    23:00 +8°C° 0 mm 1 m/S 741 mmHg 71%

    Morgen, 26 September, Mittwoch

    Zeit Temperatur Niederschläge Wind Luftdruck Luftfeuchtigkeit
    00:00 +6°C° 0 mm 2 m/S 741 mmHg 72%
    01:00 +6°C° 0 mm 2 m/S 740 mmHg 73%
    02:00 +6°C° 0 mm 2 m/S 740 mmHg 73%
    03:00 +5°C° 0 mm 2 m/S 740 mmHg 74%
    04:00 +5°C° 0 mm 2 m/S 740 mmHg 74%
    05:00 +5°C° 0 mm 2 m/S 739 mmHg 73%
    06:00 +5°C° 0 mm 2 m/S 739 mmHg 72%
    07:00 +5°C° 0 mm 2 m/S 739 mmHg 71%
    08:00 +7°C° 0 mm 2 m/S 739 mmHg 63%
    09:00 +9°C° 0 mm 2 m/S 740 mmHg 55%
    10:00 +13°C° 0 mm 2 m/S 740 mmHg 48%
    11:00 +14°C° 0 mm 2 m/S 739 mmHg 44%
    12:00 +15°C° 0 mm 2 m/S 739 mmHg 40%
    13:00 +17°C° 0 mm 2 m/S 739 mmHg 36%
    14:00 +17°C° 0 mm 2 m/S 739 mmHg 37%
    15:00 +17°C° 0 mm 2 m/S 738 mmHg 37%
    16:00 +18°C° 0 mm 2 m/S 738 mmHg 38%
    17:00 +16°C° 0 mm 2 m/S 738 mmHg 43%
    18:00 +14°C° 0 mm 1 m/S 738 mmHg 49%
    19:00 +12°C° 0 mm 1 m/S 737 mmHg 54%
    20:00 +12°C° 0 mm 1 m/S 738 mmHg 54%
    21:00 +11°C° 0 mm 1 m/S 738 mmHg 55%
    22:00 +11°C° 0 mm 1 m/S 738 mmHg 56%
    23:00 +11°C° 0 mm 1 m/S 738 mmHg 57%

    übermorgen, 27 September, Donnerstag

    Zeit Temperatur Niederschläge Wind Luftdruck Luftfeuchtigkeit
    00:00 +10°C° 0 mm 1 m/S 738 mmHg 57%
    01:00 +10°C° 0 mm 1 m/S 738 mmHg 58%
    02:00 +10°C° 0 mm 1 m/S 737 mmHg 59%
    03:00 +9°C° 0 mm 1 m/S 737 mmHg 60%
    04:00 +9°C° 0 mm 1 m/S 737 mmHg 61%
    05:00 +9°C° 0 mm 1 m/S 737 mmHg 62%
    06:00 +9°C° 0 mm 1 m/S 737 mmHg 62%
    07:00 +9°C° 0 mm 1 m/S 736 mmHg 63%
    08:00 +11°C° 0 mm 1 m/S 737 mmHg 57%
    09:00 +14°C° 0 mm 1 m/S 737 mmHg 51%
    10:00 +16°C° 0 mm 1 m/S 737 mmHg 45%
    11:00 +17°C° 0 mm 2 m/S 736 mmHg 42%
    12:00 +19°C° 0 mm 2 m/S 736 mmHg 39%
    13:00 +20°C° 0 mm 2 m/S 736 mmHg 36%
    14:00 +20°C° 0 mm 2 m/S 735 mmHg 37%
    15:00 +20°C° 0 mm 2 m/S 734 mmHg 39%
    16:00 +20°C° 0 mm 2 m/S 734 mmHg 40%
    17:00 +18°C° 0 mm 2 m/S 733 mmHg 48%
    18:00 +16°C° 0 mm 1 m/S 733 mmHg 55%
    19:00 +14°C° 0 mm 1 m/S 733 mmHg 62%
    20:00 +13°C° 0 mm 1 m/S 732 mmHg 65%
    21:00 +13°C° 0 mm 1 m/S 732 mmHg 68%
    22:00 +12°C° 0 mm 1 m/S 732 mmHg 71%
    23:00 +12°C° 0 mm 1 m/S 732 mmHg 74%

    28 September, Freitag

    Zeit Temperatur Niederschläge Wind Luftdruck Luftfeuchtigkeit
    00:00 +11°C° 0 mm 1 m/S 731 mmHg 76%
    01:00 +11°C° 0 mm 1 m/S 731 mmHg 78%
    02:00 +10°C° 0 mm 1 m/S 731 mmHg 79%
    03:00 +10°C° 0 mm 1 m/S 730 mmHg 80%
    04:00 +9°C° 0 mm 1 m/S 730 mmHg 81%
    05:00 +9°C° 0 mm 1 m/S 730 mmHg 82%
    06:00 +9°C° 0 mm 1 m/S 730 mmHg 82%
    07:00 +8°C° 0 mm 0 m/S 731 mmHg 83%
    08:00 +10°C° 0 mm 1 m/S 731 mmHg 77%
    09:00 +12°C° 0 mm 1 m/S 732 mmHg 71%
    10:00 +14°C° 0 mm 2 m/S 732 mmHg 66%
    11:00 +15°C° 0 mm 2 m/S 732 mmHg 64%
    12:00 +15°C° 0 mm 2 m/S 732 mmHg 63%
    13:00 +16°C° 0 mm 3 m/S 732 mmHg 62%
    14:00 +14°C° 0 mm 3 m/S 732 mmHg 63%
    15:00 +14°C° 0 mm 3 m/S 732 mmHg 63%
    16:00 +13°C° 0 mm 3 m/S 732 mmHg 64%
    17:00 +12°C° 0 mm 3 m/S 732 mmHg 68%
    18:00 +11°C° 0 mm 3 m/S 732 mmHg 71%
    19:00 +9°C° 0 mm 2 m/S 732 mmHg 75%
    20:00 +9°C° 0 mm 2 m/S 733 mmHg 76%
    21:00 +8°C° 0 mm 2 m/S 733 mmHg 77%
    22:00 +7°C° 0 mm 2 m/S 734 mmHg 78%
    23:00 +7°C° 0 mm 2 m/S 734 mmHg 80%

    29 September, Samstag

    Zeit Temperatur Niederschläge Wind Luftdruck Luftfeuchtigkeit
    00:00 +6°C° 0 mm 2 m/S 734 mmHg 82%
    01:00 +6°C° 0 mm 2 m/S 734 mmHg 84%
    02:00 +5°C° 0 mm 2 m/S 734 mmHg 84%
    03:00 +5°C° 0 mm 2 m/S 734 mmHg 84%
    04:00 +5°C° 0 mm 2 m/S 734 mmHg 84%
    05:00 +4°C° 0 mm 2 m/S 734 mmHg 83%
    06:00 +4°C° 0 mm 2 m/S 734 mmHg 82%
    07:00 +4°C° 0 mm 2 m/S 734 mmHg 81%
    08:00 +6°C° 0 mm 2 m/S 735 mmHg 72%
    09:00 +8°C° 0 mm 2 m/S 735 mmHg 62%
    10:00 +10°C° 0 mm 3 m/S 735 mmHg 53%
    11:00 +11°C° 0 mm 3 m/S 735 mmHg 49%
    12:00 +12°C° 0 mm 3 m/S 735 mmHg 45%
    13:00 +13°C° 0 mm 3 m/S 734 mmHg 41%
    14:00 +13°C° 0 mm 3 m/S 734 mmHg 42%
    15:00 +13°C° 0 mm 3 m/S 733 mmHg 42%
    16:00 +13°C° 0 mm 3 m/S 733 mmHg 43%
    17:00 +12°C° 0 mm 3 m/S 733 mmHg 49%
    18:00 +10°C° 0 mm 3 m/S 733 mmHg 56%
    19:00 +8°C° 0 mm 2 m/S 733 mmHg 62%
    20:00 +8°C° 0 mm 2 m/S 732 mmHg 64%
    21:00 +7°C° 0 mm 2 m/S 732 mmHg 65%
    22:00 +7°C° 0 mm 2 m/S 732 mmHg 67%
    23:00 +6°C° 0 mm 2 m/S 732 mmHg 67%

    30 September, Sonntag

    Zeit Temperatur Niederschläge Wind Luftdruck Luftfeuchtigkeit
    00:00 +6°C° 0 mm 2 m/S 731 mmHg 67%
    01:00 +6°C° 0 mm 2 m/S 731 mmHg 68%
    02:00 +5°C° 0 mm 2 m/S 731 mmHg 68%
    03:00 +5°C° 0 mm 2 m/S 730 mmHg 69%
    04:00 +6°C° 0 mm 1 m/S 730 mmHg 69%
    05:00 +5°C° 0 mm 1 m/S 730 mmHg 70%
    06:00 +5°C° 0 mm 1 m/S 730 mmHg 70%
    07:00 +5°C° 0 mm 1 m/S 729 mmHg 70%
    08:00 +8°C° 0 mm 1 m/S 730 mmHg 63%
    09:00 +10°C° 0 mm 1 m/S 730 mmHg 56%
    10:00 +12°C° 0 mm 1 m/S 730 mmHg 49%
    11:00 +14°C° 0 mm 1 m/S 729 mmHg 45%
    12:00 +15°C° 0 mm 1 m/S 729 mmHg 41%
    13:00 +16°C° 0 mm 1 m/S 729 mmHg 37%
    14:00 +16°C° 0 mm 1 m/S 728 mmHg 37%
    15:00 +16°C° 0 mm 1 m/S 728 mmHg 38%
    16:00 +16°C° 0 mm 1 m/S 727 mmHg 38%
    17:00 +14°C° 0 mm 1 m/S 727 mmHg 45%
    18:00 +12°C° 0 mm 1 m/S 727 mmHg 51%
    19:00 +10°C° 0 mm 1 m/S 727 mmHg 58%
    20:00 +10°C° 0 mm 1 m/S 727 mmHg 59%
    21:00 +10°C° 0 mm 1 m/S 727 mmHg 61%
    22:00 +9°C° 0 mm 1 m/S 727 mmHg 62%
    23:00 +9°C° 0 mm 1 m/S 727 mmHg 64%
    Mehr zeigen